Regional Weather Roundup
Issued by NWS

Home | Current Version | Previous Version | Text Only | Print | Product List | Glossary On
Versions: 1 2 3 4 5 6 7 8 9 10 11 12 13 14 15 16 17 18 19 20 21 22 23 24 25 26 27 28 29 30 31 32 33 34 35 36 37 38 39 40 41 42 43 44 45 46 47 48 49 50
000
ASUS43 KIND 270809
RWRIN

WEATHER ROUNDUP FOR INDIANA
NATIONAL WEATHER SERVICE INDIANAPOLIS IN
400 AM EDT FRI MAR 27 2015

NOTE: "FAIR" INDICATES FEW OR NO CLOUDS BELOW 12,000 FEET WITH NO
SIGNIFICANT WEATHER AND/OR OBSTRUCTIONS TO VISIBILITY.

* - STATION DOES NOT REPORT WEATHER SUCH AS PRECIPITATION OR FOG.

+ - STATION NOT QUALITY CONTROLLED BY THE NATIONAL WEATHER SERVICE.
    USE DATA WITH CAUTION...ESPECIALLY DEWPOINT AND RELATIVE
    HUMIDITY OBSERVATIONS.

INZ001>003-010>013-019-020-270900-
NORTHWEST INDIANA

CITY           SKY/WX    TMP DP  RH WIND       PRES   REMARKS
GARY /AIRPORT/ LGT SNOW  31  23  72 N15       30.07S WCI  20
KNOX *+          N/A     28  14  54 N15       30.02S WCI  17
LA PORTE +     FLURRIES  29  24  78 N10       30.04S WCI  20
MICHIGAN CITY+ CLOUDY    28  18  64 N13G20    30.05S WCI  18
MONTICELLO +   MOCLDY    30  25  81 N8        30.02R WCI  22
RENSSELAER +   MOCLDY    32  28  86 N10       30.03S WCI  24
VALPARAISO     FLURRIES  28  22  78 N8        30.04S WCI  20

$$

LMZ046-743>745-270900-
SOUTHERN LAKE MICHIGAN

STATION/POSITION TIME  TEMP WIND        PRES
                       AIR  DIR/SP/G
                 (UTC) (F)  (DEG/KT/KT) (MB)
BURNS HARBOR     0800   29   20/ 20/ 23 1017.9S
MICHIGAN CITY    0800   28  360/ 23/ 26   N/A

$$

INZ004-005-014>016-021>024-270900-
NORTH CENTRAL INDIANA

CITY           SKY/WX    TMP DP  RH WIND       PRES   REMARKS
GOSHEN         CLOUDY    29  22  75 N16       30.00R WCI  17
LOGANSPORT +   MOCLDY    30  27  86 N7        30.03R WCI  23
PERU/GRISSOM   PTCLDY    29  24  80 NW5       29.99S WCI  24
ROCHESTER +    CLEAR     32  28  86 N12       30.00F WCI  23
SOUTH BEND     CLOUDY    28  20  71 N12       30.03S WCI  18
WARSAW +       MOCLDY    30  25  80 N8        30.00R WCI  23

$$

INZ006>009-017-018-025>027-270900-
NORTHEAST INDIANA

CITY           SKY/WX    TMP DP  RH WIND       PRES   REMARKS
ANGOLA *+      CLOUDY    28  21  74 N10       29.97R WCI  19
AUBURN +       MOCLDY    32  25  74 NW5       29.98S WCI  27
FORT WAYNE     PTCLDY    27  23  85 W6        29.99S WCI  20
HUNTINGTON +   MOCLDY    26  20  80 W3        29.99S

$$

INZ028-029-035-036-043>045-051>053-270900-
WEST CENTRAL INDIANA

CITY           SKY/WX    TMP DP  RH WIND       PRES   REMARKS
CRAWFORDSVL +  CLEAR     28  21  76 MISG      30.02S
GREENCASTLE +  CLEAR     30  23  74 N6        30.01S WCI  24
LAFAYETTE      PTCLDY    29  24  82 N5        30.03R WCI  24
TERRE HAUTE    CLEAR     31  26  82 N3        30.03R

$$

INZ030>032-037>040-046>048-054>057-064-065-270900-
CENTRAL INDIANA

CITY           SKY/WX    TMP DP  RH WIND       PRES   REMARKS
CP ATTERBURY + CLEAR     30  28  93 N5        30.00S WCI  25
FISHERS *+     MOCLDY    28  28 100 CALM      30.00S
FRANKFORT +    PTCLDY    30  27  90 NW3       30.03S
GREENWOOD *+   CLEAR     32  25  74 N5        30.00S WCI  27
INDIANAPOLIS   PTCLDY    30  23  75 N6        29.99S WCI  24
-EAGLE CREEK   PTCLDY    30  24  78 NE3       30.00S
KOKOMO *+        N/A     28  25  86 N6        30.01S WCI  22
MARION +       CLOUDY    30  26  83 CALM      30.01S
MT COMFORT *+  PTCLDY    30  19  64 N5        30.00F WCI  25
SHELBYVILLE    CLEAR     31  26  82 N7        29.99S WCI  24
ZIONSVILLE +   PTCLDY    29  25  83 CALM      30.01S

$$

INZ033-034-041-042-049-050-058-059-270900-
EAST CENTRAL INDIANA

CITY           SKY/WX    TMP DP  RH WIND       PRES   REMARKS
MUNCIE         CLOUDY    32  26  78 N5        29.99S WCI  27

$$

INZ060-061-067>069-081>083-085>088-270900-
SOUTHWEST INDIANA

CITY           SKY/WX    TMP DP  RH WIND       PRES   REMARKS
EVANSVILLE     CLEAR     34  30  85 CALM      30.01F
HUNTINGBURG *+ CLEAR     32  28  86 CALM      30.00F
WASHINGTON +   CLEAR     32  29  88 NW6       30.00F WCI  26

$$

INZ062-063-066-070>080-084-089>092-270900-
SOUTH CENTRAL AND SOUTHEAST INDIANA

CITY           SKY/WX    TMP DP  RH WIND       PRES   REMARKS
BLOOMINGTON    CLEAR     28  26  92 N3        29.99S
NORTH VERNON + CLEAR     32  32 100 N3        29.98F
SEYMOUR +      CLEAR     34  30  86 N7        29.99F WCI  28

$$



USA.gov is the U.S. government's official web portal to all federal, state and local government web resources and services.